This demonstration page uses our WeatherBlox Daily Observations layout. Learn more.

Left ArrowRight Arrow

39.01783, -85.05884

Hourly Observations for July 3, 2018

Temp ( °F °C ) Dew Point ( °F °C ) Humidity (%) Winds ( mph kmh ) Pressure ( in mb ) Visibility ( mi km ) Precip ( " mm )
12:52 am 00:52 Mostly Clear 74 23.3 69 20.6 85 85 Calm 30.09 1019 10 16 0.00 0.00
1:52 am 01:52 Mostly Clear 74 23.3 69 20.6 85 85 ESE 5 7 30.09 1019 10 16 0.00 0.00
2:52 am 02:52 Partly Cloudy 73 22.8 69 20.6 87 87 SSE 5 7 30.08 1019 10 16 0.00 0.00
3:52 am 03:52 Mostly Cloudy 74 23.3 69 20.6 85 85 E 6 9 30.08 1019 10 16 0.00 0.00
4:52 am 04:52 Mostly Cloudy 74 23.3 69 20.6 85 85 E 3 6 30.07 1018 10 16 0.00 0.00
5:52 am 05:52 Mostly Cloudy 75 23.9 70 21.1 84 84 Calm 30.08 1019 10 16 0.00 0.00
6:52 am 06:52 Mostly Cloudy 72 22.2 69 20.6 91 91 SE 5 7 30.10 1019 10 16 0.00 0.00
7:52 am 07:52 Mostly Cloudy 75 23.9 70 21.1 84 84 SE 5 7 30.11 1020 10 16 0.00 0.00
8:52 am 08:52 Mostly Cloudy 77 25 71 21.7 82 82 ESE 6 9 30.13 1020 10 16 0.00 0.00
9:52 am 09:52 Mostly Cloudy 78 25.6 70 21.1 76 76 ESE 5 7 30.15 1021 10 16 0.00 0.00
10:52 am 10:52 Mostly Cloudy 83 28.3 71 21.7 67 67 VRB 5 7 30.15 1021 10 16 0.00 0.00
11:52 am 11:52 Mostly Cloudy 85 29.4 71 21.7 63 63 Calm 30.15 1021 10 16 0.00 0.00
12:52 pm 12:52 Mostly Cloudy 88 31.1 72 22.2 59 59 SSE 5 7 30.14 1021 10 16 0.00 0.00
1:52 pm 13:52 Mostly Cloudy with Thunderstorms 87 30.6 72 22.2 61 61 ESE 8 13 30.14 1021 10 16 0.00 0.00
2:45 pm 14:45 Mostly Cloudy 88 31.1 73 22.8 61 61 SE 10 17 30.09 1019 10 16 0.00 0.00
2:52 pm 14:52 Mostly Cloudy 88 31.1 73 22.8 61 61 SE 10 17 30.12 1020 10 16 0.00 0.00
3:08 pm 15:08 Mostly Cloudy with Thunderstorms 88 31.1 75 23.9 66 66 S 13 20 30.09 1019 10 16 0.00 0.00
3:38 pm 15:38 Mostly Cloudy 84 28.9 70 21.1 63 63 SSE 12 19 30.15 1021 10 16 0.00 0.00
3:52 pm 15:52 Mostly Cloudy 83 28.3 70 21.1 65 65 SSW 9 15 30.15 1021 10 16 0.00 0.00
4:52 pm 16:52 Mostly Cloudy with Light Rain 80 26.7 70 21.1 71 71 WSW 9 15 30.16 1021 10 16 0.00 0.03
5:52 pm 17:52 Cloudy 80 26.7 71 21.7 74 74 SW 6 9 30.14 1021 10 16 0.00 0.03
6:52 pm 18:52 Mostly Cloudy 81 27.2 70 21.1 69 69 N 5 7 30.14 1021 10 16 0.00 0.00
7:52 pm 19:52 Mostly Cloudy 81 27.2 70 21.1 69 69 NNE 5 7 30.14 1021 10 16 0.00 0.00
8:52 pm 20:52 Mostly Cloudy 80 26.7 71 21.7 74 74 ENE 7 11 30.13 1020 10 16 0.00 0.00
9:52 pm 21:52 Cloudy 80 26.7 71 21.7 74 74 E 7 11 30.15 1021 10 16 0.00 0.00
10:52 pm 22:52 Mostly Cloudy 79 26.1 71 21.7 77 77 ENE 6 9 30.17 1022 10 16 0.00 0.00
11:52 pm 23:52 Mostly Cloudy 77 25 71 21.7 82 82 E 3 6 30.17 1022 10 16 0.00 0.00

Powered by AerisWeather